Location: ????????
(54.6123°N, 39.2099°E)
Time: 21:26:35
(UTC+00:00)

Cosmos 2154 Rocket - Visible Passes

Search period start: 17 May 2026 00:00
Search period end: 27 May 2026 00:00
Orbit: 965 x 996 km, 82.9° (Epoch: 17 May)

Date Brightness Start Highest point End Pass type
(mag) Time Alt. Az. Time Alt. Az. Time Alt. Az.
17 May 5.5 22:37:45 10° N 22:43:27 35° ENE 22:49:05 10° SE visible
18 May 6.5 21:20:15 10° NNE 21:23:36 15° NE 21:26:57 10° E visible
18 May 4.7 23:04:32 10° N 23:10:42 55° ENE 23:16:46 10° SSE visible
19 May 6.1 21:46:31 10° N 21:51:16 22° NE 21:55:59 10° ESE visible
19 May 4.1 23:31:28 10° N 23:37:46 87° E 23:43:59 10° S visible
20 May 5.5 22:13:07 10° N 22:18:44 33° ENE 22:24:17 10° SE visible
20 May 4.1 23:58:31 10° NNW 00:04:39 59° W 00:10:42 10° S visible
21 May 6.4 20:55:43 10° NNE 20:58:51 14° NE 21:01:57 10° ENE visible
21 May 4.7 22:39:54 10° N 22:46:01 52° ENE 22:52:03 10° SSE visible
22 May 6.1 21:21:55 10° N 21:26:32 21° NE 21:31:06 10° ESE visible
22 May 4.1 23:06:49 10° N 23:13:05 82° ENE 23:19:18 10° SSE visible
23 May 5.5 21:48:30 10° N 21:54:02 32° ENE 21:59:30 10° SE visible
23 May 4.1 23:33:50 10° NNW 23:40:00 63° W 23:46:05 10° S visible
24 May 6.4 20:31:13 10° NNE 20:34:04 13° NE 20:36:55 10° ENE visible
24 May 4.8 22:15:15 10° N 22:21:19 49° ENE 22:27:18 10° SE visible
25 May 4.6 00:01:02 10° NNW 00:06:43 39° W 00:12:22 10° SSW visible
25 May 6.1 20:57:19 10° N 21:01:47 20° NE 21:06:13 10° E visible
25 May 4.1 22:42:09 10° N 22:48:25 78° ENE 22:54:37 10° SSE visible
26 May 5.5 21:23:52 10° N 21:29:18 30° ENE 21:34:41 10° ESE visible
26 May 4.1 23:09:10 10° NNW 23:15:20 66° W 23:21:28 10° S visible
